DLH5GI EDDN-LIRA

Flight info

Callsign DLH5GI
Flight time 1h 12m
Altitude 37000
Route BOLSI1C/10 BOLSI Y167 AKANU L603 OLETU Z106 MANAL M736 LIZUM N503 LIKDA DCT MOBDO DCT SOVUB DCT DIPVO DCT GITOD DCT CMP
Aircraft A20N/M-SDE2E3FGHIRWXY/LB1

Departure

Time 2026-05-01 13:53
Airport Nuremberg Airport (EDDN)

Arrival

Time 2026-05-01 15:05
Airport Ciampino–G. B. Pastine International Airport (LIRA)
Time Latitude Longitude Altitude Speed Heading
2026-05-01 13:53 49.39682 11.24358 9631 ft 287 kts 182°
2026-05-01 13:53 49.37675 11.24086 10468 ft 292 kts 182°
2026-05-01 13:54 49.35634 11.23824 11267 ft 296 kts 182°
2026-05-01 13:54 49.33554 11.23443 11835 ft 313 kts 196°
2026-05-01 13:54 49.31615 11.21864 12168 ft 337 kts 221°
2026-05-01 13:54 49.30148 11.18964 12557 ft 356 kts 246°
2026-05-01 13:55 49.29481 11.15441 13168 ft 363 kts 260°
2026-05-01 13:55 49.29094 11.11598 13941 ft 368 kts 262°
2026-05-01 13:55 49.28750 11.07757 14666 ft 371 kts 262°
2026-05-01 13:55 49.28400 11.03803 15409 ft 375 kts 262°
2026-05-01 13:56 49.28049 10.99893 16111 ft 378 kts 259°
2026-05-01 13:56 49.27191 10.96097 16809 ft 380 kts 236°
2026-05-01 13:56 49.25473 10.93043 17518 ft 380 kts 214°
2026-05-01 13:56 49.23156 10.91168 18218 ft 379 kts 192°
2026-05-01 13:57 49.20667 10.90699 18849 ft 376 kts 173°
2026-05-01 13:57 49.18907 10.91024 19214 ft 378 kts 166°
2026-05-01 13:57 49.15502 10.92223 19977 ft 382 kts 163°
2026-05-01 13:57 49.12917 10.93243 20534 ft 386 kts 163°
2026-05-01 13:58 49.10383 10.94221 21100 ft 390 kts 163°
2026-05-01 13:58 49.07757 10.95201 21658 ft 394 kts 164°
2026-05-01 13:58 49.05077 10.96183 22210 ft 398 kts 164°
2026-05-01 13:58 49.02369 10.97170 22762 ft 402 kts 164°
2026-05-01 13:59 48.99793 10.98107 23273 ft 406 kts 164°
2026-05-01 13:59 48.97033 10.99113 23803 ft 409 kts 164°
2026-05-01 13:59 48.94346 11.00090 24245 ft 413 kts 165°
2026-05-01 13:59 48.91878 11.00988 24670 ft 416 kts 164°
2026-05-01 14:00 48.89056 11.02013 25119 ft 419 kts 164°
2026-05-01 14:00 48.86207 11.03046 25578 ft 423 kts 164°
2026-05-01 14:00 48.83335 11.04087 26025 ft 426 kts 164°
2026-05-01 14:00 48.81421 11.04780 26306 ft 428 kts 164°
2026-05-01 14:01 48.78788 11.06062 26709 ft 427 kts 150°
2026-05-01 14:01 48.76407 11.08172 27110 ft 427 kts 141°
2026-05-01 14:01 48.74047 11.11043 27525 ft 428 kts 135°
2026-05-01 14:01 48.71875 11.14139 27928 ft 430 kts 133°
2026-05-01 14:02 48.69744 11.17313 28437 ft 429 kts 133°
2026-05-01 14:02 48.67700 11.20340 28972 ft 429 kts 133°
2026-05-01 14:02 48.65553 11.23471 29535 ft 428 kts 133°
2026-05-01 14:02 48.63525 11.26743 30060 ft 425 kts 126°
2026-05-01 14:03 48.61711 11.30265 30576 ft 424 kts 123°
2026-05-01 14:03 48.59979 11.33849 31054 ft 423 kts 123°
2026-05-01 14:03 48.58308 11.37308 31547 ft 421 kts 123°
2026-05-01 14:03 48.56566 11.40860 32023 ft 421 kts 123°
2026-05-01 14:04 48.55070 11.43869 32447 ft 419 kts 124°
2026-05-01 14:04 48.53315 11.47378 32928 ft 419 kts 124°
2026-05-01 14:04 48.51562 11.50875 33407 ft 417 kts 124°
2026-05-01 14:04 48.49814 11.54362 33875 ft 416 kts 124°
2026-05-01 14:05 48.48015 11.57597 34310 ft 419 kts 136°
2026-05-01 14:05 48.45631 11.60152 34645 ft 425 kts 152°
2026-05-01 14:05 48.42894 11.61861 34974 ft 428 kts 161°
2026-05-01 14:05 48.40421 11.62895 35264 ft 429 kts 165°
2026-05-01 14:06 48.37530 11.63864 35619 ft 429 kts 166°
2026-05-01 14:06 48.34607 11.64784 35967 ft 429 kts 166°
2026-05-01 14:06 48.32056 11.65605 36272 ft 429 kts 166°
2026-05-01 14:06 48.29252 11.66537 36581 ft 429 kts 165°
2026-05-01 14:07 48.26342 11.67528 36923 ft 428 kts 165°
2026-05-01 14:07 48.23611 11.68470 37249 ft 428 kts 165°
2026-05-01 14:07 48.20850 11.69427 37553 ft 428 kts 165°
2026-05-01 14:08 48.15043 11.71431 38051 ft 431 kts 165°
2026-05-01 14:08 48.09355 11.73373 38012 ft 439 kts 165°
2026-05-01 14:09 48.03624 11.75326 38001 ft 439 kts 165°
2026-05-01 14:09 47.97672 11.77365 37992 ft 439 kts 165°
2026-05-01 14:10 47.91967 11.79306 37985 ft 439 kts 166°
2026-05-01 14:10 47.86447 11.80006 37982 ft 442 kts 180°
2026-05-01 14:11 47.80295 11.79526 37976 ft 443 kts 182°
2026-05-01 14:11 47.71237 11.78926 37969 ft 443 kts 180°
2026-05-01 14:12 47.65361 11.78607 37948 ft 443 kts 181°
2026-05-01 14:12 47.59201 11.78258 37941 ft 443 kts 181°
2026-05-01 14:13 47.53057 11.77916 37964 ft 445 kts 180°
2026-05-01 14:13 47.46820 11.77562 37959 ft 446 kts 181°
2026-05-01 14:14 47.40651 11.77219 37944 ft 443 kts 181°
2026-05-01 14:14 47.34491 11.76876 37936 ft 447 kts 181°
2026-05-01 14:15 47.28242 11.76530 37925 ft 446 kts 181°
2026-05-01 14:15 47.22037 11.76183 37927 ft 446 kts 181°
2026-05-01 14:16 47.15819 11.75842 37910 ft 447 kts 181°
2026-05-01 14:16 47.09600 11.75499 37911 ft 447 kts 181°
2026-05-01 14:17 47.03384 11.75173 37914 ft 447 kts 181°
2026-05-01 14:17 46.97192 11.75416 37901 ft 446 kts 173°
2026-05-01 14:18 46.91010 11.76172 37883 ft 445 kts 174°
2026-05-01 14:18 46.85895 11.76732 37885 ft 446 kts 174°
2026-05-01 14:19 46.78660 11.77463 37874 ft 446 kts 174°
2026-05-01 14:19 46.72455 11.78103 37876 ft 447 kts 174°
2026-05-01 14:20 46.63148 11.79056 37883 ft 448 kts 174°
2026-05-01 14:21 46.56945 11.79690 37881 ft 446 kts 174°
2026-05-01 14:21 46.50748 11.80323 37882 ft 446 kts 175°
2026-05-01 14:22 46.41417 11.81288 37944 ft 446 kts 174°
2026-05-01 14:22 46.35233 11.82163 37947 ft 447 kts 173°
2026-05-01 14:23 46.29036 11.83067 37967 ft 448 kts 173°
2026-05-01 14:23 46.22881 11.83927 37958 ft 449 kts 173°
2026-05-01 14:24 46.16719 11.84789 37971 ft 448 kts 173°
2026-05-01 14:24 46.10517 11.85660 37987 ft 447 kts 173°
2026-05-01 14:25 46.04323 11.86527 37997 ft 447 kts 173°
2026-05-01 14:25 45.98121 11.87389 38020 ft 448 kts 173°
2026-05-01 14:26 45.88806 11.88686 38027 ft 449 kts 173°
2026-05-01 14:27 45.82587 11.89549 38067 ft 450 kts 173°
2026-05-01 14:27 45.76357 11.90412 38072 ft 450 kts 173°
2026-05-01 14:28 45.67035 11.91696 38025 ft 451 kts 173°
2026-05-01 14:28 45.60787 11.92552 38024 ft 451 kts 173°
2026-05-01 14:29 45.54584 11.93408 38055 ft 451 kts 173°
2026-05-01 14:30 45.42097 11.95118 38072 ft 453 kts 173°
2026-05-01 14:31 45.32612 11.96416 38067 ft 453 kts 174°
2026-05-01 14:31 45.26328 11.97260 38071 ft 454 kts 174°
2026-05-01 14:32 45.20043 11.98111 38080 ft 454 kts 173°
2026-05-01 14:32 45.13760 11.98967 38117 ft 454 kts 173°
2026-05-01 14:33 45.07453 11.99821 38119 ft 455 kts 173°
2026-05-01 14:33 45.01161 12.00663 38125 ft 455 kts 173°
2026-05-01 14:34 44.94853 12.01510 38131 ft 455 kts 173°
2026-05-01 14:34 44.88539 12.02397 38129 ft 456 kts 173°
2026-05-01 14:35 44.82222 12.03360 38124 ft 457 kts 173°
2026-05-01 14:35 44.75924 12.04295 37765 ft 450 kts 173°
2026-05-01 14:35 44.72803 12.04754 36774 ft 454 kts 172°
2026-05-01 14:36 44.69642 12.05225 35730 ft 459 kts 171°
2026-05-01 14:36 44.66491 12.05696 34753 ft 463 kts 171°
2026-05-01 14:36 44.63288 12.06171 34093 ft 460 kts 171°
2026-05-01 14:36 44.60109 12.06637 33777 ft 459 kts 171°
2026-05-01 14:37 44.56929 12.07104 33504 ft 458 kts 171°
2026-05-01 14:37 44.53769 12.07571 33229 ft 457 kts 171°
2026-05-01 14:37 44.50606 12.08040 32966 ft 456 kts 171°
2026-05-01 14:37 44.47459 12.08506 32700 ft 454 kts 171°
2026-05-01 14:38 44.44317 12.08969 32469 ft 455 kts 171°
2026-05-01 14:38 44.41170 12.09430 32208 ft 454 kts 171°
2026-05-01 14:38 44.38038 12.09886 31985 ft 451 kts 171°
2026-05-01 14:39 44.31777 12.10804 31955 ft 455 kts 171°
2026-05-01 14:39 44.25492 12.11729 31918 ft 454 kts 171°
2026-05-01 14:40 44.19208 12.12641 31916 ft 454 kts 171°
2026-05-01 14:40 44.13020 12.13538 31917 ft 454 kts 171°
2026-05-01 14:41 44.06739 12.14456 31918 ft 454 kts 171°
2026-05-01 14:41 44.00456 12.15366 31923 ft 454 kts 171°
2026-05-01 14:42 43.95190 12.16126 31928 ft 456 kts 171°
2026-05-01 14:42 43.88869 12.17042 31925 ft 457 kts 171°
2026-05-01 14:43 43.82562 12.17947 31917 ft 456 kts 171°
2026-05-01 14:43 43.76249 12.18858 31913 ft 457 kts 171°
2026-05-01 14:44 43.69901 12.19766 31902 ft 458 kts 171°
2026-05-01 14:44 43.60380 12.21108 31889 ft 458 kts 171°
2026-05-01 14:45 43.50798 12.22294 31896 ft 463 kts 171°
2026-05-01 14:46 43.44381 12.23096 31885 ft 463 kts 171°
2026-05-01 14:46 43.34751 12.24308 31861 ft 466 kts 171°
2026-05-01 14:47 43.28301 12.25106 31837 ft 466 kts 171°
2026-05-01 14:48 43.18632 12.26311 31818 ft 465 kts 171°
2026-05-01 14:48 43.08953 12.27504 30894 ft 460 kts 171°
2026-05-01 14:49 43.02651 12.28283 29492 ft 449 kts 170°
2026-05-01 14:49 42.96488 12.29044 28050 ft 440 kts 170°
2026-05-01 14:50 42.91447 12.29666 26875 ft 434 kts 170°
2026-05-01 14:50 42.84506 12.30518 25413 ft 423 kts 170°
2026-05-01 14:51 42.81596 12.30919 24797 ft 416 kts 162°
2026-05-01 14:51 42.76462 12.33786 23568 ft 390 kts 142°
2026-05-01 14:52 42.71837 12.37581 23130 ft 390 kts 141°
2026-05-01 14:52 42.69524 12.39464 22612 ft 384 kts 141°
2026-05-01 14:52 42.64970 12.43099 21452 ft 375 kts 141°
2026-05-01 14:53 42.62729 12.44871 20839 ft 371 kts 141°
2026-05-01 14:53 42.60514 12.46634 20240 ft 367 kts 141°
2026-05-01 14:53 42.58324 12.48381 19645 ft 362 kts 141°
2026-05-01 14:53 42.56152 12.50108 19055 ft 360 kts 141°
2026-05-01 14:54 42.53998 12.51816 18488 ft 357 kts 141°
2026-05-01 14:54 42.51860 12.53511 17865 ft 354 kts 142°
2026-05-01 14:54 42.49742 12.55189 17281 ft 351 kts 142°
2026-05-01 14:54 42.47647 12.56848 16711 ft 348 kts 142°
2026-05-01 14:55 42.45565 12.58494 16167 ft 345 kts 143°
2026-05-01 14:55 42.43508 12.60119 15586 ft 341 kts 143°
2026-05-01 14:55 42.41467 12.61730 15059 ft 338 kts 144°
2026-05-01 14:55 42.39449 12.63321 14516 ft 334 kts 143°
2026-05-01 14:56 42.37337 12.64635 13914 ft 340 kts 164°
2026-05-01 14:56 42.34971 12.64747 13325 ft 345 kts 189°
2026-05-01 14:56 42.32664 12.63886 12793 ft 342 kts 198°
2026-05-01 14:56 42.30449 12.62754 12253 ft 339 kts 200°
2026-05-01 14:57 42.28252 12.61597 11704 ft 339 kts 199°
2026-05-01 14:57 42.23996 12.59452 10395 ft 315 kts 198°
2026-05-01 14:57 42.21979 12.58451 9703 ft 304 kts 198°
2026-05-01 14:58 42.20018 12.57480 9008 ft 302 kts 198°
2026-05-01 14:58 42.18065 12.56513 8751 ft 293 kts 198°
2026-05-01 14:58 42.16168 12.55574 8415 ft 289 kts 198°
2026-05-01 14:58 42.14313 12.54657 8031 ft 276 kts 198°
2026-05-01 14:59 42.12537 12.53778 7650 ft 263 kts 198°
2026-05-01 14:59 42.10814 12.52928 7277 ft 264 kts 198°
2026-05-01 14:59 42.09134 12.52101 6875 ft 266 kts 198°
2026-05-01 14:59 42.07453 12.51270 6445 ft 269 kts 198°
2026-05-01 15:00 42.03989 12.49558 5878 ft 260 kts 198°
2026-05-01 15:00 42.02261 12.48710 5350 ft 267 kts 198°
2026-05-01 15:00 42.00519 12.47852 4814 ft 260 kts 198°
2026-05-01 15:01 41.98837 12.47267 4316 ft 247 kts 175°
2026-05-01 15:01 41.97151 12.47175 4112 ft 236 kts 171°
2026-05-01 15:01 41.95595 12.47656 3840 ft 235 kts 172°
2026-05-01 15:01 41.93975 12.47281 3540 ft 235 kts 197°
2026-05-01 15:02 41.92411 12.46842 3229 ft 225 kts 171°
2026-05-01 15:02 41.91453 12.47200 3065 ft 213 kts 146°
2026-05-01 15:02 41.90249 12.49045 2775 ft 187 kts 110°
2026-05-01 15:02 41.89773 12.50581 2640 ft 170 kts 107°
2026-05-01 15:03 41.89352 12.52004 2521 ft 165 kts 108°
2026-05-01 15:03 41.88787 12.53357 2444 ft 171 kts 142°
2026-05-01 15:03 41.87750 12.54131 2256 ft 171 kts 151°
2026-05-01 15:03 41.86647 12.54853 1775 ft 174 kts 151°
2026-05-01 15:04 41.85572 12.55590 1527 ft 170 kts 150°
2026-05-01 15:04 41.84522 12.56316 1290 ft 169 kts 148°
2026-05-01 15:04 41.83499 12.57022 1066 ft 166 kts 149°
2026-05-01 15:04 41.82506 12.57708 844 ft 152 kts 149°
2026-05-01 15:05 41.81600 12.58333 645 ft 144 kts 150°
2026-05-01 15:05 41.80714 12.58958 465 ft 146 kts 149°
2026-05-01 15:05 41.79897 12.59523 415 ft 101 kts 154°
2026-05-01 15:05 41.79504 12.59786 410 ft 38 kts 153°
2026-05-01 15:06 41.79294 12.59933 415 ft 27 kts 151°
2026-05-01 15:06 41.79119 12.60050 413 ft 18 kts 159°
2026-05-01 15:06 41.79022 12.59954 407 ft 20 kts 258°
2026-05-01 15:06 41.79129 12.59837 407 ft 23 kts 334°
2026-05-01 15:07 41.79257 12.59747 406 ft 12 kts 316°
2026-05-01 15:07 41.79245 12.59663 404 ft 11 kts 243°
2026-05-01 15:07 41.79262 12.59575 406 ft 13 kts 321°
2026-05-01 15:07 41.79331 12.59500 406 ft 7 kts 322°
2026-05-01 15:08 41.79349 12.59481 406 ft 5 kts 322°
2026-05-01 15:08 41.79379 12.59453 406 ft 2 kts 337°
2026-05-01 15:08 41.79401 12.59466 406 ft 4 kts 42°
2026-05-01 15:08 41.79422 12.59502 406 ft 5 kts 52°
2026-05-01 15:09 41.79427 12.59511 406 ft 0 kts 52°
2026-05-01 15:09 41.79426 12.59509 406 ft 1 kts 52°
2026-05-01 15:19 41.79427 12.59511 406 ft 0 kts 52°
2026-05-01 15:19 41.79413 12.59486 403 ft 0 kts 17°
2026-05-01 15:19 41.79390 12.59490 404 ft 9 kts 322°
2026-05-01 15:20 41.79458 12.59421 406 ft 12 kts 357°
2026-05-01 15:20 41.79530 12.59510 406 ft 23 kts 50°
2026-05-01 15:20 41.79648 12.59479 406 ft 20 kts 334°
2026-05-01 15:21 41.79781 12.59390 407 ft 24 kts 334°
2026-05-01 15:21 41.79940 12.59287 407 ft 27 kts 334°
2026-05-01 15:21 41.80034 12.59221 405 ft 7 kts 329°
2026-05-01 15:21 41.80076 12.59184 407 ft 4 kts 316°
2026-05-01 15:22 41.80085 12.59157 406 ft 2 kts 341°
2026-05-01 15:22 41.80170 12.59113 407 ft 12 kts 316°
2026-05-01 15:22 41.80169 12.59065 403 ft 7 kts 240°
2026-05-01 15:23 41.80131 12.58997 406 ft 11 kts 228°
2026-05-01 15:23 41.80101 12.58949 406 ft 1 kts 238°
2026-05-01 15:23 41.80098 12.58931 406 ft 2 kts 271°
2026-05-01 15:23 41.80101 12.58913 405 ft 0 kts 303°
2026-05-01 15:24 41.80104 12.58911 406 ft 0 kts 318°
2026-05-01 15:24 41.80144 12.58869 402 ft 0 kts 322°